Wind_Speed
16 15 20 14 12 24 26 25 30 17 23 6 4 1 5 6 3 0 5 6 6 6 7 5 4 3 3 3 2 2 1 3
19 18 20 25 28 31 14 8 10 27 11 11 25 13 4 3 3 2 2 4 6 6 6 5 5 4 3 3 3 3 3 4
16 26 22 26 24 20 17 21 20 19 18 17 7 16 6 6 7 6 3 2 4 6 7 5 4 4 4 3 4 5 6 8
18 20 18 21 21 14 16 20 21 22 25 22 4 4 6 4 9 7 6 6 5 5 9 7 5 3 2 3 4 5 6 7
21 18 19 20 20 17 22 17 31 30 30 0 13 15 8 2 4 8 6 5 5 6 5 5 5 4 3 5 7 8 10 11
20 29 22 19 15 20 21 21 25 35 33 24 21 21 28 7 6 8 7 5 7 7 8 9 11 8 9 10 9 10 12 13
19 20 20 37 26 15 17 15 18 38 36 37 30 26 35 19 13 11 11 8 12 13 10 12 13 14 13 13 14 13 14 15
32 17 11 24 9 15 12 14 24 37 42 43 38 38 24 29 13 15 17 18 16 16 18 15 14 14 15 16 16 20 20 20
28 28 21 20 19 22 14 11 26 30 36 33 37 26 16 8 8 14 20 24 23 21 20 19 21 19 19 20 20 23 24 24
25 14 25 18 14 30 27 20 28 27 24 13 18 14 11 14 14 17 19 22 23 24 25 23 24 22 23 23 23 25 27 27
25 23 19 23 29 41 33 28 22 33 36 47 20 17 2 17 23 25 26 26 25 28 24 26 27 28 26 26 27 29 30 30
27 25 22 32 37 38 36 23 28 33 32 23 5 20 26 32 26 25 29 27 26 29 27 28 27 29 28 27 28 30 32 31
23 30 39 44 38 42 41 28 36 37 30 33 35 30 29 34 35 35 34 28 28 30 29 29 30 30 32 32 32 34 35 34
40 39 45 39 40 41 25 30 37 33 36 37 35 37 39 40 37 35 32 29 31 32 32 33 32 33 35 37 38 39 39 40
27 23 35 44 33 33 10 11 21 31 43 37 33 34 33 33 32 32 33 34 38 37 36 34 35 39 39 39 40 41 42 42
22 23 24 33 37 49 41 37 20 26 32 32 39 40 34 33 31 30 30 32 33 36 38 38 38 39 42 43 43 42 42 42
24 24 27 27 29 29 24 24 27 30 32 33 34 35 36 36 36 37 37 39 39 40 40 40 40 41 40 41 42 42 41 41
30 28 28 32 29 31 29 31 33 35 36 37 39 39 40 40 40 38 37 37 38 39 39 39 39 39 41 41 41 42 41 42
35 34 34 37 36 35 32 32 35 35 36 36 37 37 37 37 38 39 40 39 39 39 38 38 38 40 40 41 42 42 43 43
Wind_Direction
247 223 216 204 246 257 268 251 255 256 253 227 86 147 271 222 235 57 89 89 97 95 81 77 78 85 120 100 83 77 11 17
243 246 217 182 225 247 263 241 292 281 299 244 152 168 151 203 227 236 145 128 121 109 91 78 73 55 73 70 26 359 336 336
234 240 223 201 216 256 288 279 274 280 322 314 136 115 290 251 232 211 205 167 133 123 108 93 100 56 41 14 351 350 347 343
237 244 229 214 235 258 254 291 292 270 293 282 175 135 132 331 225 218 202 187 170 150 140 122 53 46 33 9 357 351 345 344
207 237 236 238 221 238 248 257 272 276 276 220 200 170 130 154 113 179 188 178 216 213 226 253 298 302 296 341 351 343 334 329
229 200 219 250 238 258 234 248 273 276 278 263 246 203 159 202 208 175 181 207 234 247 256 260 278 287 291 302 317 326 324 322
204 257 236 196 213 216 257 265 266 279 283 283 270 236 162 170 237 232 241 257 263 262 259 265 275 284 292 299 299 300 307 310
208 228 233 233 299 253 269 274 269 259 267 267 266 283 238 171 226 236 244 257 266 264 263 263 270 279 292 297 296 295 299 298
221 226 225 235 243 260 239 245 256 264 271 272 273 235 252 251 241 248 248 258 266 268 269 274 275 280 285 290 294 298 297 294
226 229 244 239 242 254 240 219 261 260 280 273 313 212 207 247 260 256 260 267 269 277 277 279 277 281 282 288 288 292 295 296
219 230 231 222 225 239 235 235 253 257 266 280 302 307 238 276 270 268 271 278 277 273 272 273 279 282 285 284 284 286 291 293
224 225 231 237 236 244 231 231 231 239 254 270 309 283 291 289 275 275 282 278 271 274 277 279 280 280 284 286 287 286 287 291
221 227 228 232 241 240 236 233 252 262 256 249 261 274 274 274 277 281 283 271 269 273 279 278 279 280 283 285 287 287 293 294
248 246 245 238 236 244 231 225 253 260 249 264 272 273 275 278 278 277 277 273 268 271 273 273 277 279 284 286 284 289 291 293
251 273 262 262 264 247 281 195 252 252 252 266 268 276 282 282 273 268 269 270 268 270 271 272 276 279 283 284 286 288 291 292
239 263 247 250 258 262 267 265 278 268 266 265 262 268 271 268 268 271 273 273 272 273 273 276 278 280 283 286 288 289 290 291
255 255 271 271 267 269 274 260 263 260 267 266 262 265 267 266 268 269 274 276 275 275 276 278 280 282 283 284 287 288 287 286
252 259 273 277 275 272 269 265 262 260 258 260 265 264 268 273 276 277 275 274 277 278 279 280 281 282 284 286 286 287 288 287
271 269 265 268 269 263 260 261 261 260 261 263 264 267 269 272 273 275 276 277 278 279 279 278 279 283 282 283 285 286 285 286
Height
5880 5882 5884 5890 5892 5892 5889 5890 5888 5889 5889 5886 5892 5893 5895 5896 5895 5894 5893 5895 5896 5896 5897 5898 5898 5899 5900 5900 5901 5902 5902 5901
5881 5880 5881 5885 5886 5886 5886 5885 5886 5880 5880 5878 5873 5889 5895 5897 5896 5894 5894 5896 5897 5897 5898 5899 5899 5900 5901 5901 5901 5902 5902 5903
5880 5876 5878 5883 5882 5885 5885 5884 5884 5877 5880 5882 5880 5880 5895 5895 5895 5893 5894 5895 5896 5898 5899 5900 5900 5900 5900 5900 5901 5901 5901 5901
5876 5877 5876 5881 5884 5887 5887 5888 5882 5880 5885 5886 5885 5889 5891 5892 5890 5892 5894 5895 5897 5898 5899 5900 5900 5900 5899 5901 5901 5901 5901 5901
5873 5877 5876 5875 5878 5883 5885 5885 5880 5879 5883 5883 5883 5880 5885 5891 5888 5891 5893 5894 5896 5897 5899 5899 5900 5900 5899 5899 5899 5899 5899 5899
5870 5868 5871 5874 5877 5879 5880 5881 5879 5872 5871 5874 5877 5875 5870 5889 5889 5890 5891 5894 5894 5895 5896 5896 5897 5897 5896 5896 5896 5896 5896 5896
5868 5862 5861 5868 5869 5873 5876 5878 5880 5864 5864 5866 5869 5839 5858 5874 5885 5887 5888 5891 5891 5890 5892 5892 5892 5893 5893 5893 5893 5892 5893 5893
5858 5861 5863 5866 5864 5873 5876 5877 5874 5866 5865 5867 5871 5870 5853 5859 5879 5879 5884 5887 5888 5888 5888 5889 5888 5888 5888 5889 5889 5889 5889 5889
5854 5857 5860 5864 5870 5870 5873 5876 5863 5854 5850 5854 5856 5866 5868 5869 5871 5875 5880 5882 5883 5884 5883 5884 5883 5885 5885 5885 5884 5884 5884 5884
5850 5854 5855 5862 5868 5864 5865 5866 5854 5852 5843 5848 5855 5860 5868 5870 5869 5873 5876 5878 5879 5878 5878 5879 5879 5881 5879 5879 5879 5879 5878 5878
5843 5848 5853 5857 5852 5850 5855 5862 5861 5854 5852 5851 5848 5856 5843 5862 5867 5869 5871 5873 5873 5871 5873 5873 5873 5873 5873 5873 5874 5873 5873 5872
5837 5841 5847 5841 5845 5848 5851 5856 5851 5855 5850 5847 5838 5853 5857 5859 5861 5863 5862 5866 5866 5863 5865 5866 5867 5867 5866 5866 5866 5866 5865 5865
5831 5831 5828 5827 5837 5836 5843 5853 5849 5850 5852 5849 5850 5854 5853 5853 5853 5853 5854 5858 5857 5856 5857 5858 5858 5859 5858 5858 5858 5857 5856 5855
5826 5823 5817 5822 5826 5828 5827 5831 5839 5842 5842 5843 5843 5843 5842 5839 5844 5845 5848 5847 5848 5848 5851 5850 5851 5850 5850 5850 5848 5847 5846 5845
5820 5816 5811 5811 5811 5810 5808 5817 5831 5834 5835 5836 5836 5836 5834 5834 5834 5837 5838 5838 5840 5841 5842 5844 5843 5841 5841 5841 5840 5838 5836 5835
5811 5810 5809 5809 5812 5813 5819 5820 5824 5827 5824 5827 5828 5829 5829 5829 5829 5831 5831 5830 5832 5833 5834 5834 5834 5834 5832 5831 5830 5829 5827 5826
5805 5800 5805 5806 5805 5810 5812 5817 5816 5819 5818 5818 5819 5820 5820 5820 5821 5822 5822 5822 5823 5822 5823 5824 5824 5823 5823 5822 5820 5819 5818 5817
5799 5802 5799 5797 5803 5802 5804 5805 5807 5809 5811 5810 5809 5811 5811 5811 5811 5812 5813 5812 5812 5813 5813 5814 5814 5813 5812 5811 5810 5809 5808 5806
5789 5791 5791 5791 5794 5796 5797 5798 5799 5800 5800 5800 5800 5800 5800 5801 5802 5803 5803 5803 5803 5803 5803 5803 5804 5804 5803 5801 5800 5798 5797 5796